User: anonymous   Login
Location: The Jewett Observatory
(46.7288°N, 117.1525°W)
Time: 05:39:37
(UTC-07:00)
Language:

Cosmos 1633 - Orbit

View from above orbital plane
View from above orbital plane
View from above satellite
View from above satellite

Ground track
Ground track

The orbit data is extracted from the following two-line orbital elements,

1 15592U 85020A   16179.86077279  .00001446  00000-0  53044-4 0  9992
2 15592  82.5390 313.9403 0013950 355.9522   4.1601 15.27054912710199
Epoch (UTC): 27 June 2016 20:39:30
Eccentricity: 0.0013950
inclination: 82.5390°
perigee height: 475 km
apogee height: 494 km
right ascension of ascending node: 313.9403°
argument of perigee: 355.9522°
revolutions per day: 15.27054912
mean anomaly at epoch: 4.1601°
orbit number at epoch: 71019

The dashed part of the orbit path shows where the satellite is in the earth's shadow,  

DLR